KINETICS ASSET MANAGEMENT LLC, various various various 10% owner of TPL - Past Performance as of 04/22/19. Total 24 Records. Link to Thomson Financial
Buy(P) /
Sell(S)
P/S date Filed Date Company Symbol Insider Relationship Share Amt. Unit Price Total Proceeds Shares Owned Return(1m) Details
P 2019-04-18 2019-04-22 11:00:19.0 TEXAS PACIFIC LAND TRUST TPL KINETICS ASSET MANAGEMENT LLC various various various 10% owner 42 $899.92 $37,796.60 203,872 view
P 2019-04-17 2019-04-18 11:40:32.0 TEXAS PACIFIC LAND TRUST TPL KINETICS ASSET MANAGEMENT LLC various various various 10% owner 42 $887.23 $37,263.70 203,830 view
P 2019-04-16 2019-04-17 10:59:36.0 TEXAS PACIFIC LAND TRUST TPL KINETICS ASSET MANAGEMENT LLC various various various 10% owner 42 $898.49 $37,736.60 203,788 view
P 2019-04-15 2019-04-16 11:41:36.0 TEXAS PACIFIC LAND TRUST TPL KINETICS ASSET MANAGEMENT LLC various various various 10% owner 42 $903.05 $37,928.10 203,746 view
P 2019-04-12 2019-04-15 11:49:13.0 TEXAS PACIFIC LAND TRUST TPL KINETICS ASSET MANAGEMENT LLC various various various 10% owner 42 $903.52 $37,947.80 203,704 view
P 2019-04-11 2019-04-12 11:05:08.0 TEXAS PACIFIC LAND TRUST TPL KINETICS ASSET MANAGEMENT LLC various various various 10% owner 42 $911.07 $38,264.90 203,662 view
P 2019-04-10 2019-04-11 11:28:51.0 TEXAS PACIFIC LAND TRUST TPL KINETICS ASSET MANAGEMENT LLC various various various 10% owner 42 $874.06 $36,710.50 203,620 view
P 2019-04-09 2019-04-10 11:35:56.0 TEXAS PACIFIC LAND TRUST TPL KINETICS ASSET MANAGEMENT LLC various various 10% owner director 36 $821.55 $29,575.80 203,578 view
P 2019-04-08 2019-04-09 11:55:06.0 TEXAS PACIFIC LAND TRUST TPL KINETICS ASSET MANAGEMENT LLC various various various 10% owner 7 $814.50 $5,701.50 203,542 view
P 2019-04-05 2019-04-08 11:04:02.0 TEXAS PACIFIC LAND TRUST TPL KINETICS ASSET MANAGEMENT LLC various various various 10% owner 42 $792.27 $33,275.30 203,535 view
P 2019-04-03 2019-04-04 11:42:38.0 TEXAS PACIFIC LAND TRUST TPL KINETICS ASSET MANAGEMENT LLC various various various 10% owner 42 $797.88 $33,511.00 201,977 view
P 2019-04-02 2019-04-03 11:50:38.0 TEXAS PACIFIC LAND TRUST TPL KINETICS ASSET MANAGEMENT LLC various various various 10% owner 42 $801.16 $33,648.70 201,935 view
P 2019-04-01 2019-04-02 11:32:10.0 TEXAS PACIFIC LAND TRUST TPL KINETICS ASSET MANAGEMENT LLC various various various 10% owner 42 $784.30 $32,940.60 201,893 view
P 2019-03-29 2019-04-01 11:49:03.0 TEXAS PACIFIC LAND TRUST TPL KINETICS ASSET MANAGEMENT LLC various various various 10% owner 42 $773.48 $32,486.20 201,851 view
P 2019-03-28 2019-03-29 11:56:39.0 TEXAS PACIFIC LAND TRUST TPL KINETICS ASSET MANAGEMENT LLC various various various 10% owner 7 $774.83 $5,423.81 201,809 view
P 2019-03-27 2019-03-28 11:58:47.0 TEXAS PACIFIC LAND TRUST TPL KINETICS ASSET MANAGEMENT LLC various various various 10% owner 42 $774.38 $32,524.00 201,802 view
P 2019-03-26 2019-03-27 11:34:02.0 TEXAS PACIFIC LAND TRUST TPL KINETICS ASSET MANAGEMENT LLC various various various 10% owner 42 $764.28 $32,099.80 201,760 view
P 2019-03-25 2019-03-26 13:24:27.0 TEXAS PACIFIC LAND TRUST TPL KINETICS ASSET MANAGEMENT LLC various various various 10% owner 42 $725.36 $30,465.10 201,718 view
P 2019-03-22 2019-03-25 11:57:40.0 TEXAS PACIFIC LAND TRUST TPL KINETICS ASSET MANAGEMENT LLC various various various 10% owner 42 $751.10 $31,546.20 201,676 view
P 2019-03-21 2019-03-22 12:32:07.0 TEXAS PACIFIC LAND TRUST TPL KINETICS ASSET MANAGEMENT LLC various various various 10% owner 42 $767.89 $32,251.40 201,634 view
P 2019-03-20 2019-03-21 16:34:03.0 TEXAS PACIFIC LAND TRUST TPL KINETICS ASSET MANAGEMENT LLC various various various 10% owner 42 $765.98 $32,171.20 201,592 view
P 2019-03-19 2019-03-20 12:29:26.0 TEXAS PACIFIC LAND TRUST TPL KINETICS ASSET MANAGEMENT LLC various various various 10% owner 42 $760.69 $31,949.00 201,550 view
P 2019-03-18 2019-03-19 12:37:48.0 TEXAS PACIFIC LAND TRUST TPL KINETICS ASSET MANAGEMENT LLC various various various 10% owner 42 $741.16 $31,128.60 201,508 view
P 2019-03-15 2019-03-18 16:42:01.0 TEXAS PACIFIC LAND TRUST TPL KINETICS ASSET MANAGEMENT LLC various various various 10% owner 42 $748.14 $31,421.90 201,466 view
* Filed by insider as open market transaction, but marked as private transaction by insidercow's proprietary method